ONEWEB-0708, 61613

Orbit data source: Space-Track

ONEWEB-0708, 61613 is a payload satellite owned by Eut. One Web (UK) in LEO that was launched on Sun, 20 Oct 2024 UTC via an FALCON 9 launch vehicle from the Air Force Western Test Range (AFWTR). Payload-class satellites include a variety of spacecraft equipped with specific instruments for various scientific and technological missions. These include communications satellites like Starlink; space stations such as the ISS; scientific satellites like the Hubble; Earth observation satellites from companies like Planet Labs, Umbra, and HawkEye 360; GPS; miniature CubeSats for education and research; and military/defense satellites.

Loading next visibility...
Identifier
61613, 2024-188V
Orbit
LEO
Country
Flag of UKUK
Related business
Manufacturer
One Web
Mission
Operational spacecraft
Bus & Motor
ARROW, Unknown motor
Mass
148 kg wet, ~140 kg dry
Launch date (UTC)
2024-10-20 (1 year ago)
Launch vehicle
FALCON 9
Launch site
Air Force Western Test Range (AFWTR)
Object type
Payload
Rocket body
Debris
Shape & HBR
Unknown shape, 6.7 m
Radar Cross Section
Large (>1 m²)

Expand to show TLE details & history
Last TLE update: 12 hours ago

TLE from 12 hours ago
0 ONEWEB-0708
1 61613U 24188V   25295.15441225 -.00000143  00000-0 -44525-3 0  9990
2 61613  87.8770  83.7349 0001625  74.1476 285.9831 13.10367768 52121
Epoch: 2025-10-22T03:42Z
TLE epoch observation values (Epoch: 2025-10-22T03:42:21.218Z)
Latitude
0.00005°
Longitude
-2.6856°
Altitude
1,224.284 km
Speed
7.242 km/s
True Right ascension
05h 34m 56s
True Declination
0° 00' 00"
Sunlit
Object was in daylight at epoch
Visualization orbit readout
Latitude
Unknown
Longitude
Unknown
Altitude
Unknown
Speed
Unknown
Apparent Right ascension
Unknown
Apparent Declination
Unknown
Sunlit
N/A
Visualization observer readout
Local Sidereal Time
10:30:19
Azimuth
Unknown
Elevation
Unknown
Doppler factor
Unknown
Orbital elements
Apogee altitude
1,220.091 km
Perigee altitude
1,217.622 km
Semi-major axis
7,596.994 km
Eccentricity
0.00016
Inclination
87.877°
RAAN
83.7349°
Arg. of periapsis
74.1476°
True anomaly
285.9652°
Mean anomaly
285.9831°
Eccentric anomaly
285.97415°
Mean motion
3.27779 °/min
Orbital period
109.83 mins
BSTAR
-0.00044525
Loading maneuver chart data...
Computing Atmospheric mass density...
Loading historical data...
Loading historical data...
Loading historical data...
Loading historical data...
Loading historical data...
Loading historical data...
Loading historical data...

Documentation

Showing up to 5 results
|